When you browse on this site, cookies collect data to enhance your experience and personalize the content and advertising you see.
Visit our Privacy Policy to learn more. By continuing to use the site, you agree to this use of cookies and data.
  • Em Portugal
  • Lista de países
  • Para 7 dias
  • Temperatura da água
  • Mapa do tempo
  • Widgets de tempo
  • user-avatar
    Iniciar Sessão

    Previsão horária em Sumgait

    Hoje, 24 Fevereiro, Segunda-feira

    Tempo Temperatura Precipitação Vento Pressão Humidade
    00:00 +7°C° 0 mm 2 m/s 742 mmHg 86%
    01:00 +6°C° 0 mm 2 m/s 742 mmHg 85%
    02:00 +6°C° 0 mm 2 m/s 742 mmHg 84%
    03:00 +6°C° 0 mm 2 m/s 742 mmHg 83%
    04:00 +7°C° 0 mm 1 m/s 742 mmHg 83%
    05:00 +7°C° 0 mm 1 m/s 741 mmHg 82%
    06:00 +7°C° 0 mm 1 m/s 741 mmHg 82%
    07:00 +7°C° 0 mm 2 m/s 741 mmHg 82%
    08:00 +7°C° 0 mm 3 m/s 741 mmHg 82%
    09:00 +6°C° 0 mm 4 m/s 741 mmHg 82%
    10:00 +7°C° 0 mm 5 m/s 740 mmHg 81%
    11:00 +8°C° 0 mm 6 m/s 739 mmHg 80%
    12:00 +8°C° 0 mm 7 m/s 739 mmHg 79%
    13:00 +9°C° 0 mm 7 m/s 738 mmHg 78%
    14:00 +9°C° 0 mm 8 m/s 737 mmHg 76%
    15:00 +10°C° 0 mm 8 m/s 736 mmHg 74%
    16:00 +9°C° 0 mm 8 m/s 735 mmHg 77%
    17:00 +9°C° 0 mm 7 m/s 735 mmHg 79%
    18:00 +8°C° 0 mm 7 m/s 734 mmHg 82%
    19:00 +7°C° 0 mm 8 m/s 734 mmHg 83%
    20:00 +7°C° 0 mm 8 m/s 733 mmHg 85%
    21:00 +6°C° 0 mm 9 m/s 733 mmHg 86%
    22:00 +6°C° 0 mm 8 m/s 732 mmHg 87%
    23:00 +6°C° 0 mm 8 m/s 731 mmHg 88%

    Amanhã, 25 Fevereiro, Terça-feira

    Tempo Temperatura Precipitação Vento Pressão Humidade
    00:00 +6°C° 0 mm 8 m/s 730 mmHg 89%
    01:00 +6°C° 0 mm 8 m/s 730 mmHg 88%
    02:00 +5°C° 0 mm 7 m/s 729 mmHg 87%
    03:00 +5°C° 0 mm 7 m/s 729 mmHg 86%
    04:00 +5°C° 0 mm 7 m/s 729 mmHg 77%
    05:00 +6°C° 0 mm 8 m/s 729 mmHg 68%
    06:00 +6°C° 0 mm 8 m/s 728 mmHg 59%
    07:00 +9°C° 0 mm 7 m/s 729 mmHg 53%
    08:00 +10°C° 0 mm 7 m/s 730 mmHg 47%
    09:00 +12°C° 0 mm 7 m/s 731 mmHg 41%
    10:00 +11°C° 0 mm 9 m/s 732 mmHg 44%
    11:00 +11°C° 0 mm 11 m/s 733 mmHg 47%
    12:00 +9°C° 0 mm 13 m/s 733 mmHg 51%
    13:00 +9°C° 0 mm 13 m/s 734 mmHg 50%
    14:00 +8°C° 0 mm 13 m/s 734 mmHg 50%
    15:00 +8°C° 0 mm 13 m/s 734 mmHg 49%
    16:00 +7°C° 0 mm 12 m/s 735 mmHg 51%
    17:00 +5°C° 0 mm 12 m/s 736 mmHg 52%
    18:00 +4°C° 0 mm 11 m/s 737 mmHg 54%
    19:00 +5°C° 0.2 mm 9 m/s 738 mmHg 60%
    20:00 +4°C° 0.2 mm 7 m/s 739 mmHg 66%
    21:00 +4°C° 0.2 mm 4 m/s 740 mmHg 73%
    22:00 +5°C° 0.1 mm 4 m/s 741 mmHg 68%
    23:00 +5°C° 0.1 mm 3 m/s 741 mmHg 63%

    Depois de amanhã, 26 Fevereiro, Quarta-feira

    Tempo Temperatura Precipitação Vento Pressão Humidade
    00:00 +6°C° 0.1 mm 2 m/s 741 mmHg 58%
    01:00 +6°C° 0 mm 2 m/s 741 mmHg 57%
    02:00 +5°C° 0 mm 2 m/s 741 mmHg 57%
    03:00 +4°C° 0 mm 3 m/s 742 mmHg 57%
    04:00 +3°C° 0 mm 3 m/s 742 mmHg 60%
    05:00 +3°C° 0 mm 3 m/s 743 mmHg 64%
    06:00 +2°C° 0 mm 3 m/s 743 mmHg 68%
    07:00 +4°C° 0 mm 2 m/s 744 mmHg 63%
    08:00 +6°C° 0 mm 1 m/s 744 mmHg 58%
    09:00 +6°C° 0 mm 1 m/s 745 mmHg 53%
    10:00 +6°C° 0 mm 2 m/s 745 mmHg 49%
    11:00 +8°C° 0 mm 3 m/s 745 mmHg 45%
    12:00 +8°C° 0 mm 4 m/s 744 mmHg 42%
    13:00 +8°C° 0 mm 5 m/s 744 mmHg 42%
    14:00 +8°C° 0 mm 6 m/s 744 mmHg 43%
    15:00 +8°C° 0 mm 7 m/s 744 mmHg 43%
    16:00 +6°C° 0 mm 7 m/s 744 mmHg 48%
    17:00 +6°C° 0 mm 8 m/s 744 mmHg 53%
    18:00 +5°C° 0 mm 8 m/s 744 mmHg 58%
    19:00 +5°C° 0 mm 9 m/s 744 mmHg 61%
    20:00 +3°C° 0 mm 9 m/s 744 mmHg 65%
    21:00 +3°C° 0 mm 9 m/s 744 mmHg 68%
    22:00 +2°C° 0 mm 9 m/s 743 mmHg 71%
    23:00 +2°C° 0 mm 10 m/s 743 mmHg 74%

    27 Fevereiro, Quinta-feira

    Tempo Temperatura Precipitação Vento Pressão Humidade
    00:00 +2°C° 0 mm 10 m/s 743 mmHg 77%
    01:00 +2°C° 0 mm 9 m/s 742 mmHg 79%
    02:00 +2°C° 0 mm 9 m/s 742 mmHg 80%
    03:00 +1°C° 0 mm 9 m/s 742 mmHg 81%
    04:00 +1°C° 0 mm 8 m/s 742 mmHg 80%
    05:00 +1°C° 0 mm 8 m/s 742 mmHg 79%
    06:00 +1°C° 0 mm 8 m/s 742 mmHg 78%
    07:00 +2°C° 0 mm 8 m/s 742 mmHg 72%
    08:00 +3°C° 0 mm 9 m/s 742 mmHg 65%
    09:00 +5°C° 0 mm 10 m/s 743 mmHg 58%
    10:00 +7°C° 0 mm 10 m/s 742 mmHg 56%
    11:00 +8°C° 0 mm 11 m/s 742 mmHg 53%
    12:00 +9°C° 0 mm 11 m/s 742 mmHg 51%
    13:00 +9°C° 0 mm 11 m/s 742 mmHg 53%
    14:00 +9°C° 0 mm 11 m/s 741 mmHg 55%
    15:00 +9°C° 0 mm 11 m/s 741 mmHg 56%
    16:00 +8°C° 0 mm 11 m/s 741 mmHg 62%
    17:00 +7°C° 0 mm 10 m/s 740 mmHg 68%
    18:00 +6°C° 0 mm 10 m/s 740 mmHg 74%
    19:00 +6°C° 0 mm 9 m/s 740 mmHg 76%
    20:00 +5°C° 0 mm 9 m/s 740 mmHg 79%
    21:00 +5°C° 0 mm 8 m/s 740 mmHg 82%
    22:00 +4°C° 0 mm 8 m/s 739 mmHg 83%
    23:00 +4°C° 0 mm 8 m/s 739 mmHg 84%

    28 Fevereiro, Sexta-feira

    Tempo Temperatura Precipitação Vento Pressão Humidade
    00:00 +4°C° 0 mm 8 m/s 739 mmHg 85%
    01:00 +4°C° 0 mm 7 m/s 738 mmHg 86%
    02:00 +4°C° 0 mm 7 m/s 737 mmHg 87%
    03:00 +3°C° 0 mm 7 m/s 737 mmHg 88%
    04:00 +3°C° 0 mm 7 m/s 736 mmHg 88%
    05:00 +3°C° 0 mm 6 m/s 736 mmHg 88%
    06:00 +3°C° 0 mm 6 m/s 735 mmHg 89%
    07:00 +4°C° 0 mm 7 m/s 735 mmHg 83%
    08:00 +5°C° 0 mm 7 m/s 735 mmHg 77%
    09:00 +6°C° 0 mm 7 m/s 735 mmHg 71%
    10:00 +9°C° 0 mm 8 m/s 734 mmHg 62%
    11:00 +10°C° 0 mm 8 m/s 734 mmHg 53%
    12:00 +12°C° 0 mm 9 m/s 733 mmHg 45%
    13:00 +12°C° 0 mm 9 m/s 733 mmHg 43%
    14:00 +13°C° 0 mm 9 m/s 732 mmHg 42%
    15:00 +13°C° 0 mm 9 m/s 732 mmHg 41%
    16:00 +12°C° 0 mm 8 m/s 732 mmHg 45%
    17:00 +11°C° 0 mm 7 m/s 732 mmHg 49%
    18:00 +10°C° 0 mm 6 m/s 732 mmHg 53%
    19:00 +9°C° 0 mm 5 m/s 732 mmHg 55%
    20:00 +10°C° 0 mm 4 m/s 732 mmHg 58%
    21:00 +9°C° 0 mm 3 m/s 732 mmHg 60%
    22:00 +9°C° 0 mm 2 m/s 732 mmHg 60%
    23:00 +8°C° 0 mm 2 m/s 732 mmHg 60%

    29 Fevereiro, Sábado

    Tempo Temperatura Precipitação Vento Pressão Humidade
    00:00 +9°C° 0 mm 1 m/s 732 mmHg 59%
    01:00 +9°C° 0 mm 1 m/s 732 mmHg 58%
    02:00 +8°C° 0 mm 0 m/s 732 mmHg 57%
    03:00 +7°C° 0 mm 0 m/s 732 mmHg 56%
    04:00 +7°C° 0 mm 0 m/s 732 mmHg 58%
    05:00 +8°C° 0 mm 1 m/s 733 mmHg 60%
    06:00 +8°C° 0 mm 1 m/s 733 mmHg 62%
    07:00 +8°C° 0 mm 3 m/s 734 mmHg 61%
    08:00 +8°C° 0 mm 5 m/s 735 mmHg 59%
    09:00 +10°C° 0 mm 7 m/s 735 mmHg 58%
    10:00 +10°C° 0 mm 9 m/s 736 mmHg 57%
    11:00 +11°C° 0 mm 11 m/s 736 mmHg 57%
    12:00 +10°C° 0 mm 13 m/s 736 mmHg 56%
    13:00 +9°C° 0 mm 13 m/s 736 mmHg 59%
    14:00 +9°C° 0 mm 13 m/s 736 mmHg 62%
    15:00 +8°C° 0 mm 13 m/s 736 mmHg 64%
    16:00 +7°C° 0 mm 12 m/s 737 mmHg 67%
    17:00 +5°C° 0 mm 12 m/s 737 mmHg 70%
    18:00 +4°C° 0 mm 12 m/s 738 mmHg 73%
    19:00 +3°C° 0.2 mm 12 m/s 738 mmHg 74%
    20:00 +3°C° 0.2 mm 12 m/s 739 mmHg 75%
    21:00 +2°C° 0.2 mm 12 m/s 739 mmHg 76%
    22:00 +2°C° 0.3 mm 10 m/s 740 mmHg 73%
    23:00 +2°C° 0.3 mm 9 m/s 740 mmHg 69%
    Mostrar mais